This is the latest recevied weather packets stored in our database for station/object W5CRT. If no packets are shown the sender has not sent any weather packets the latest 1 day(s).
| Time | Temp. | Humidity | Pressure | Rain* | Wind** | Luminosity | Snow |
|---|---|---|---|---|---|---|---|
| 1777974391 | 21.67° C | 82% | 1002.5 hPa | 0 mm | 4.02 m/s, 119° | 0 W/m² | - |
| 1777974088 | 21.67° C | 82% | 1002.5 hPa | 0 mm | 0.45 m/s, 109° | 0 W/m² | - |
| 1777973784 | 21.67° C | 82% | 1002.5 hPa | 0 mm | 3.58 m/s, 169° | 0 W/m² | - |
| 1777973481 | 21.67° C | 82% | 1002.4 hPa | 0 mm | 1.79 m/s, 133° | 0 W/m² | - |
| 1777973178 | 21.67° C | 82% | 1002.8 hPa | 0 mm | 2.68 m/s, 153° | 0 W/m² | - |
| 1777972878 | 21.67° C | 82% | 1002.6 hPa | 0 mm | 1.79 m/s, 210° | 0 W/m² | - |
| 1777972573 | 21.67° C | 82% | 1002.8 hPa | 0 mm | 2.24 m/s, 160° | 0 W/m² | - |
| 1777972272 | 21.67° C | 82% | 1002.4 hPa | 0 mm | 0.89 m/s, 168° | 0 W/m² | - |
| 1777971969 | 21.67° C | 82% | 1002.4 hPa | 0 mm | 4.47 m/s, 160° | 0 W/m² | - |
| 1777971667 | 21.67° C | 82% | 1002.4 hPa | 0 mm | 3.58 m/s, 162° | 0 W/m² | - |
| 1777971364 | 21.67° C | 82% | 1002.4 hPa | 0 mm | 3.58 m/s, 182° | 0 W/m² | - |
| 1777971063 | 21.67° C | 82% | 1002.5 hPa | 0 mm | 4.02 m/s, 212° | 0 W/m² | - |
| 1777970760 | 21.67° C | 82% | 1002.3 hPa | 0 mm | 4.02 m/s, 164° | 0 W/m² | - |
| 1777970458 | 21.67° C | 82% | 1002.2 hPa | 0 mm | 2.68 m/s, 176° | 0 W/m² | - |
| 1777970155 | 21.67° C | 82% | 1002.4 hPa | 0 mm | 3.58 m/s, 160° | 0 W/m² | - |
| 1777969852 | 21.67° C | 82% | 1002.1 hPa | 0 mm | 2.24 m/s, 212° | 0 W/m² | - |
| 1777969547 | 21.67° C | 82% | 1002.5 hPa | 0 mm | 2.24 m/s, 175° | 0 W/m² | - |
| 1777969245 | 21.67° C | 82% | 1002.4 hPa | 0 mm | 2.68 m/s, 163° | 0 W/m² | - |
| 1777968941 | 21.67° C | 82% | 1002.4 hPa | 0 mm | 1.34 m/s, 132° | 0 W/m² | - |
| 1777968638 | 21.67° C | 82% | 1002.6 hPa | 0 mm | 1.79 m/s, 140° | 0 W/m² | - |
| 1777968334 | 21.67° C | 82% | 1002.5 hPa | 0 mm | 0.89 m/s, 145° | 0 W/m² | - |
| 1777968031 | 21.67° C | 81% | 1002.6 hPa | 0 mm | 2.24 m/s, 146° | 0 W/m² | - |
| 1777967727 | 21.67° C | 81% | 1002.7 hPa | 0 mm | 2.68 m/s, 157° | 0 W/m² | - |
| 1777967424 | 21.67° C | 81% | 1002.9 hPa | 0 mm | 4.02 m/s, 165° | 0 W/m² | - |
| 1777967121 | 21.67° C | 81% | 1002.8 hPa | 0 mm | 3.13 m/s, 218° | 0 W/m² | - |
* Rain latest hour (hover to see other rain measurements)
** Current wind speed in m/s (hover to see current wind gust speed)